Location: Gettysburg
(39.8310°N, 77.2310°W)
Time: 16:23:35
(UTC-04:00)

ATLAS 2AS CENTAUR R/B - Visible Passes

Search period start: 29 September 2016 00:00
Search period end: 09 October 2016 00:00
Orbit: 909 x 1303 km, 63.7° (Epoch: 27 September)

Date Brightness Start Highest point End Pass type
(mag) Time Alt. Az. Time Alt. Az. Time Alt. Az.
29 Sep 5.4 01:07:13 11° NE 01:07:13 11° NE 01:07:34 10° NE visible
29 Sep 4.3 02:54:39 32° N 02:54:39 32° N 02:59:02 10° NNE visible
29 Sep 4.7 04:42:06 16° NW 04:44:20 18° NNW 04:49:28 10° NNE visible
29 Sep 5.1 06:36:22 10° NNW 06:39:14 12° N 06:42:05 10° NNE visible
30 Sep 4.8 02:11:20 25° NNE 02:11:20 25° NNE 02:14:16 10° NNE visible
30 Sep 4.5 03:58:45 23° NNW 03:58:45 23° NNW 04:04:48 10° NNE visible
30 Sep 5.1 05:50:25 10° NNW 05:53:15 12° N 05:56:05 10° NNE visible
01 Oct 5.2 01:27:58 16° NE 01:27:58 16° NE 01:29:23 10° NE visible
01 Oct 4.5 03:15:25 26° NNW 03:15:25 26° NNW 03:20:09 10° NNE visible
01 Oct 5.0 05:03:47 10° NW 05:07:17 13° NNW 05:10:49 10° NNE visible
02 Oct 4.7 02:32:03 25° N 02:32:03 25° N 02:35:30 10° NNE visible
02 Oct 4.9 04:19:29 14° NW 04:21:25 15° NNW 04:25:56 10° NNE visible
02 Oct 5.2 06:13:13 10° NNW 06:16:26 13° N 06:19:40 10° NNE visible
03 Oct 5.1 01:48:40 19° NNE 01:48:40 19° NNE 01:50:47 10° NNE visible
03 Oct 4.8 03:36:06 19° NNW 03:36:06 19° NNW 03:41:14 10° NNE visible
03 Oct 5.2 05:27:42 10° NNW 05:30:28 12° N 05:33:13 10° NNE visible
04 Oct 5.4 01:05:17 13° NNE 01:05:17 13° NNE 01:05:58 10° NNE visible
04 Oct 4.8 02:52:43 21° N 02:52:43 21° N 02:56:35 10° NNE visible
04 Oct 5.2 04:41:26 10° NNW 04:44:29 12° N 04:47:32 10° NNE visible
04 Oct 5.1 06:34:41 10° NNW 06:39:28 16° NNE 06:44:09 10° ENE visible
05 Oct 5.0 02:09:20 20° N 02:09:20 20° N 02:11:56 10° NNE visible
05 Oct 5.0 03:56:46 13° NNW 03:58:33 14° NNW 04:02:28 10° NNE visible
05 Oct 5.2 05:49:52 10° NNW 05:53:37 14° NNE 05:57:21 10° NE visible
06 Oct 5.3 01:25:56 15° NNE 01:25:56 15° NNE 01:27:15 10° NNE visible
06 Oct 5.0 03:13:21 17° NNW 03:13:21 17° NNW 03:17:41 10° NNE visible
06 Oct 5.2 05:04:43 10° NNW 05:07:41 12° N 05:10:37 10° NNE visible
07 Oct 5.1 02:29:57 18° N 02:29:57 18° N 02:33:00 10° NNE visible
07 Oct 5.2 04:18:55 10° NNW 04:21:41 12° N 04:24:29 10° NNE visible
07 Oct 5.1 06:11:09 10° NNW 06:16:32 19° NNE 06:21:47 10° ENE visible
08 Oct 5.2 01:46:33 16° N 01:46:33 16° N 01:48:22 10° NNE visible
08 Oct 5.2 03:33:58 12° NNW 03:35:43 13° N 03:39:05 10° NNE visible
08 Oct 5.2 05:26:25 10° NNW 05:30:46 15° NNE 05:35:03 10° NE visible
